Regional Weather Roundup
Issued by NWS New Orleans/Baton Rouge, LA

Home | Current Version | Previous Version | Graphics & Text | Print | Product List | Glossary On
Versions: 1 2 3 4 5 6 7 8 9 10 11 12 13 14 15 16 17 18 19 20 21 22 23 24 25 26 27 28 29 30 31 32 33 34 35 36 37 38 39 40 41 42 43 44 45 46 47 48 49 50
949
ASUS44 KLIX 230301
RWRLIX
NEW ORLEANS REGIONAL WEATHER ROUNDUP
NATIONAL WEATHER SERVICE NEW ORLEANS LA
1000 PM CDT FRI AUG 22 2014

NOTE: "FAIR" INDICATES FEW OR NO CLOUDS BELOW 12,000 FEET WITH NO
      SIGNIFICANT WEATHER AND/OR OBSTRUCTIONS TO VISIBILITY.
      SKY/WX - SKY CONDITION AND SIGNIFICANT WEATHER.
      TMP - AIR TEMPERATURE.     DP    - DEWPOINT TEMPERATURE.
      RH  - RELATIVE HUMIDITY.   PRES  - PRESSURE.
      HI  - HEAT INDEX.          WCI   - WIND CHILL INDEX.

*  THESE STATIONS ARE NOT NWS OR FAA STATIONS AND ARE NOT UNDER
   NWS QUALITY CONTROL.

LAZ038-040-048-061>063-065>067-069-230400-
SOUTHEAST LOUISIANA

CITY           SKY/WX    TMP DP  RH WIND       PRES   REMARKS
N.O. AUDUBON   NOT AVBL
N.O. INTL ARPT CLEAR     84  70  62 SW7       30.03R
N.O. LAKEFRONT CLEAR     88  72  58 SW7       30.03R
N.O. DOWNTOWN*   N/A     91  68  46 S5        30.04R HX  95
SLIDELL        CLEAR     81  75  82 CALM      30.02R
BATON ROUGE    CLEAR     81  76  84 CALM      30.03R
BOOTHVILLE     CLEAR     83  76  79 S3        30.04R
BELLE CHASSE   PTCLDY    81  74  79 SW5       30.03R
BOGALUSA*        N/A     82  76  84 CALM      30.04R
GALLIANO*      NOT AVBL
NEW ROADS*       N/A     79  77  94 CALM      30.03R
GONZALES*        N/A     81  80  97 CALM      30.03R
HAMMOND*       NOT AVBL
HOUMA*         CLEAR     82  75  78 CALM      30.04S
PORT FOURCHON* CLEAR     88  73  62 S5        30.06R HX  96

$$

MSZ070-080>082-230400-
SOUTHERN MISSISSIPPI

CITY           SKY/WX    TMP DP  RH WIND       PRES   REMARKS
MCCOMB         CLEAR     79  73  82 CALM      30.04R
GULFPORT       CLEAR     83  76  79 CALM      30.02R
BILOXI         CLEAR     84  75  74 W3        30.02R
PASCAGOULA     CLEAR     77  75  93 CALM      30.02R FOG

$$

COASTAL OBSERVATIONS
LAKE AND NEARSHORE STATIONS

STATION/POSITION TIME  TEMP    WIND        PRES    WAVE
                       AIR SEA DIR/SP/G            HT/PER
                 (UTC) (F)     (DEG/KT/KT) (MB)    (FT/S)
PASCAGOULA       0200   88     240/  8/ 10 1016.1
WAVELAND YACHT   0200   86                 1016.0
GRAND ISLE       0200      90              1017.9
SOUTHWEST PASS   0200      88              1017.4
NEW CANAL        0200   89 87              1017.3
SHELL BEACH      0200   85 85  180/  6/  6 1016.6

OFFSHORE STATIONS

STATION/POSITION TIME  TEMP    WIND        PRES    WAVE
                       AIR SEA DIR/SP/G            HT/PER
                 (UTC) (F)     (DEG/KT/KT) (MB)    (FT/S)
64 S DAUPHIN ISL 0200          VRB  2        N/A

$$




USA.gov is the U.S. government's official web portal to all federal, state and local government web resources and services.